Weather in Lebedyn

Ukraine / Sumi District     50°34′35″N   34°29′11″E
temp.,
°C
wind,
m/s
gust,
m/s
humid.,
%
clouds,
%
prec.,
mm/h
press.,
hPa
HPBL,
m
27 september, mon
mon2700:00+7nw511855 0.0 1018366
03:00+6nw410925 0.0 1019299
06:00+6nnw5995100 0.0 1020414
09:00+9n7978100 0.0 1020734
12:00+11n5668100 0.0 1021998
15:00+12n456393 0.0 10201057
18:00+11n36735 0.1 1021228
21:00+7n38916 0.1 1022155
28 september, tue
tue2800:00+7n34935 0.0 102269
03:00+6n359531 0.0 102387
06:00+6n3695100 0.0 1023127
09:00+9nne468283 0.0 1024364
12:00+10ne4675100 0.1 1025560
15:00+10ne5678100 0.2 1025613
18:00+10ne4771100 0.0 1027464
21:00+8ne497938 0.0 1029398
29 september, wed
wed2900:00+7ne488372 0.0 1030375
03:00+7ene4782100 0.0 1030593
06:00+7ne5878100 0.0 1032557
09:00+7ene5871100 0.0 1032568
12:00+11ene565523 0.0 10331124
15:00+13ene45456 0.0 10311555
18:00+10ne35510 0.0 103277
21:00+7ene38580 0.0 1033128
30 september, thu
thu3000:00+5ene34640 0.0 103469
03:00+4ene336827 0.0 103445
06:00+3ene337111 0.0 103539
09:00+7e355744 0.0 1035276
12:00+12e3441100 0.0 10351103
15:00+13e333799 0.0 10341292
18:00+10ene22490 0.0 103412
21:00+7e33550 0.0 103422
1 october, fri
fri100:00+6ese22580 0.0 103619
03:00+5ese22620 0.0 103618
06:00+4ese22640 0.0 103622
09:00+8ese23520 0.0 1036211
12:00+13se33390 0.0 10361094
15:00+14ese22350 0.0 10351458
18:00+11e22470 0.0 103417
21:00+8ese33520 0.0 103524